User: anonymous   Login
Location: Wingville
(42.9917°N, 90.4915°W)
Time: 01:37:42
(UTC+00:00)
Language:

EO-79 - Orbit

View from above orbital plane
View from above orbital plane
View from above satellite
View from above satellite

Ground track
Ground track

The orbit data is extracted from the following two-line orbital elements,

1 40025U 14033R   22180.54228064  .00001132  00000-0  12162-3 0  9998
2 40025  97.9609 118.0358 0012915  24.3946 335.7881 14.90543856435568
Epoch (UTC): 29 June 2022 13:00:53
Eccentricity: 0.0012915
inclination: 97.9609°
perigee height: 587 km
apogee height: 605 km
right ascension of ascending node: 118.0358°
argument of perigee: 24.3946°
revolutions per day: 14.90543856
mean anomaly at epoch: 335.7881°
orbit number at epoch: 43556

The dashed part of the orbit path shows where the satellite is in the earth's shadow,  

DLR